Location: Arboyeti
(42.1122°N, 44.6017°E)
Time: 20:40:05
(UTC+00:00)

Cosmos 1627 Rocket - Pass Details

Date: 19 April 2021
Orbit: 950 x 1004 km, 82.9° (Epoch: 17 May)

Event Time Altitude Azimuth Distance (km) Brightness Sun altitude
Rises 16:48:23 0° 354° (N) 3,636 8.0 -11.3°
Reaches altitude 10° 16:50:54 10° 357° (N) 2,690 7.2 -11.8°
Maximum altitude 16:57:02 69° 81° (E) 1,026 4.5 -12.8°
Drops below altitude 10° 17:03:11 10° 164° (SSE) 2,700 6.4 -13.7°
Enters shadow 17:03:57 - 165° (SSE) 2,991 6.6 -13.9°
